Time,TemperatureF,DewpointF,PressureIn,WindDirection,WindDirectionDegrees,WindSpeedMPH,WindSpeedGustMPH,Humidity,HourlyPrecipIn,Conditions,Clouds,dailyrainin,SolarRadiationWatts/m^2,SoftwareType,DateUTC
2013-07-20 00:21:00,57.0,45.0,-100.00,East,83,7.0,16.0,65,0.00,,,0.00,0.000000,,2013-07-20 06:21:00,
2013-07-20 00:32:00,57.0,45.0,-100.00,East,83,7.0,16.0,65,0.00,,,0.00,0.000000,,2013-07-20 06:32:00,
2013-07-20 00:43:00,57.0,45.0,-100.00,East,83,7.0,16.0,65,0.00,,,0.00,0.000000,,2013-07-20 06:43:00,
2013-07-20 00:52:00,57.0,45.0,-100.00,East,83,7.0,16.0,65,0.00,,,0.00,0.000000,,2013-07-20 06:52:00,
2013-07-20 01:22:00,55.0,45.0,-100.00,East,79,8.0,13.0,69,0.00,,,0.00,0.000000,,2013-07-20 07:22:00,
2013-07-20 01:33:00,55.0,45.0,-100.00,East,79,8.0,13.0,69,0.00,,,0.00,0.000000,,2013-07-20 07:33:00,
2013-07-20 01:44:00,55.0,45.0,-100.00,East,79,8.0,13.0,69,0.00,,,0.00,0.000000,,2013-07-20 07:44:00,
2013-07-20 01:53:00,55.0,45.0,-100.00,East,79,8.0,13.0,69,0.00,,,0.00,0.000000,,2013-07-20 07:53:00,
2013-07-20 02:22:00,52.0,45.0,-100.00,East,90,11.0,14.0,76,0.00,,,0.00,0.000000,,2013-07-20 08:22:00,
2013-07-20 02:32:00,52.0,45.0,-100.00,East,90,11.0,14.0,76,0.00,,,0.00,0.000000,,2013-07-20 08:32:00,
2013-07-20 02:44:00,52.0,45.0,-100.00,East,90,11.0,14.0,76,0.00,,,0.00,0.000000,,2013-07-20 08:44:00,
2013-07-20 02:52:00,52.0,45.0,-100.00,East,90,11.0,14.0,76,0.00,,,0.00,0.000000,,2013-07-20 08:52:00,
2013-07-20 03:22:00,50.0,43.0,-100.00,East,93,6.0,16.0,77,0.00,,,0.00,0.000000,,2013-07-20 09:22:00,
2013-07-20 03:33:00,50.0,43.0,-100.00,East,93,6.0,16.0,77,0.00,,,0.00,0.000000,,2013-07-20 09:33:00,
2013-07-20 03:43:00,50.0,43.0,-100.00,East,93,6.0,16.0,77,0.00,,,0.00,0.000000,,2013-07-20 09:43:00,
2013-07-20 03:53:00,50.0,43.0,-100.00,East,93,6.0,16.0,77,0.00,,,0.00,0.000000,,2013-07-20 09:53:00,
2013-07-20 04:22:00,51.0,43.0,-100.00,ENE,67,8.0,13.0,74,0.00,,,0.00,0.000000,,2013-07-20 10:22:00,
2013-07-20 04:32:00,51.0,43.0,-100.00,ENE,67,8.0,13.0,74,0.00,,,0.00,0.000000,,2013-07-20 10:32:00,
2013-07-20 04:42:00,51.0,43.0,-100.00,ENE,67,8.0,13.0,74,0.00,,,0.00,0.000000,,2013-07-20 10:42:00,
2013-07-20 04:52:00,51.0,43.0,-100.00,ENE,67,8.0,13.0,74,0.00,,,0.00,0.000000,,2013-07-20 10:52:00,
2013-07-20 05:22:00,48.0,42.0,-100.00,East,94,6.0,11.0,81,0.00,,,0.00,0.000000,,2013-07-20 11:22:00,
2013-07-20 05:32:00,48.0,42.0,-100.00,East,94,6.0,11.0,81,0.00,,,0.00,0.000000,,2013-07-20 11:32:00,
2013-07-20 05:43:00,48.0,42.0,-100.00,East,94,6.0,11.0,81,0.00,,,0.00,0.000000,,2013-07-20 11:43:00,
2013-07-20 05:52:00,48.0,42.0,-100.00,East,94,6.0,11.0,81,0.00,,,0.00,0.000000,,2013-07-20 11:52:00,
2013-07-20 06:22:00,48.0,43.0,-100.00,East,93,6.0,11.0,82,0.00,,,0.00,1.000000,,2013-07-20 12:22:00,
2013-07-20 06:32:00,48.0,43.0,-100.00,East,93,6.0,11.0,82,0.00,,,0.00,1.000000,,2013-07-20 12:32:00,
2013-07-20 06:52:00,48.0,43.0,-100.00,East,93,6.0,11.0,82,0.00,,,0.00,1.000000,,2013-07-20 12:52:00,
2013-07-20 07:22:00,50.0,44.0,-100.00,East,96,7.0,9.0,79,0.00,,,0.00,40.000000,,2013-07-20 13:22:00,
2013-07-20 07:43:00,50.0,44.0,-100.00,East,96,7.0,9.0,79,0.00,,,0.00,40.000000,,2013-07-20 13:43:00,
2013-07-20 07:53:00,50.0,44.0,-100.00,East,96,7.0,9.0,79,0.00,,,0.00,40.000000,,2013-07-20 13:53:00,
2013-07-20 08:22:00,56.0,46.0,-100.00,ESE,111,6.0,8.0,69,0.00,,,0.00,206.000000,,2013-07-20 14:22:00,
2013-07-20 08:32:00,56.0,46.0,-100.00,ESE,111,6.0,8.0,69,0.00,,,0.00,206.000000,,2013-07-20 14:32:00,
2013-07-20 08:43:00,56.0,46.0,-100.00,ESE,111,6.0,8.0,69,0.00,,,0.00,206.000000,,2013-07-20 14:43:00,
2013-07-20 08:53:00,56.0,46.0,-100.00,ESE,111,6.0,8.0,69,0.00,,,0.00,206.000000,,2013-07-20 14:53:00,
2013-07-20 09:22:00,62.0,48.0,-100.00,ESE,115,4.0,8.0,60,0.00,,,0.00,398.000000,,2013-07-20 15:22:00,
2013-07-20 09:33:00,62.0,48.0,-100.00,ESE,115,4.0,8.0,60,0.00,,,0.00,398.000000,,2013-07-20 15:33:00,
2013-07-20 09:44:00,62.0,48.0,-100.00,ESE,115,4.0,8.0,60,0.00,,,0.00,398.000000,,2013-07-20 15:44:00,
2013-07-20 09:53:00,62.0,48.0,-100.00,ESE,115,4.0,8.0,60,0.00,,,0.00,398.000000,,2013-07-20 15:53:00,
2013-07-20 10:22:00,67.0,48.0,-100.00,WSW,254,6.0,9.0,50,0.00,,,0.00,588.000000,,2013-07-20 16:22:00,
2013-07-20 10:32:00,67.0,48.0,-100.00,WSW,254,6.0,9.0,50,0.00,,,0.00,588.000000,,2013-07-20 16:32:00,
2013-07-20 10:43:00,67.0,48.0,-100.00,WSW,254,6.0,9.0,50,0.00,,,0.00,588.000000,,2013-07-20 16:43:00,
2013-07-20 10:52:00,67.0,48.0,-100.00,WSW,254,6.0,9.0,50,0.00,,,0.00,588.000000,,2013-07-20 16:52:00,
2013-07-20 11:22:00,69.0,43.0,-100.00,West,259,9.0,13.0,39,0.00,,,0.00,757.000000,,2013-07-20 17:22:00,
2013-07-20 11:32:00,69.0,43.0,-100.00,West,259,9.0,13.0,39,0.00,,,0.00,757.000000,,2013-07-20 17:32:00,
2013-07-20 11:43:00,69.0,43.0,-100.00,West,259,9.0,13.0,39,0.00,,,0.00,757.000000,,2013-07-20 17:43:00,
2013-07-20 11:53:00,69.0,43.0,-100.00,West,259,9.0,13.0,39,0.00,,,0.00,757.000000,,2013-07-20 17:53:00,
2013-07-20 12:24:00,72.0,41.0,-100.00,WSW,253,10.0,19.0,32,0.00,,,0.00,890.000000,,2013-07-20 18:24:00,
2013-07-20 12:45:00,72.0,41.0,-100.00,WSW,253,10.0,19.0,32,0.00,,,0.00,890.000000,,2013-07-20 18:45:00,
2013-07-20 12:55:00,72.0,41.0,-100.00,WSW,253,10.0,19.0,32,0.00,,,0.00,890.000000,,2013-07-20 18:55:00,
2013-07-20 13:25:00,76.0,25.0,-100.00,West,268,10.0,21.0,15,0.00,,,0.00,980.000000,,2013-07-20 19:25:00,
2013-07-20 13:53:00,76.0,25.0,-100.00,West,268,10.0,21.0,15,0.00,,,0.00,980.000000,,2013-07-20 19:53:00,
2013-07-20 14:23:00,76.0,25.0,-100.00,West,261,13.0,24.0,15,0.00,,,-99.99,1016.000000,,2013-07-20 20:23:00,
2013-07-20 14:33:00,76.0,25.0,-100.00,West,261,13.0,24.0,15,0.00,,,-99.99,1016.000000,,2013-07-20 20:33:00,
2013-07-20 14:45:00,76.0,25.0,-100.00,West,261,13.0,24.0,15,0.00,,,-99.99,1016.000000,,2013-07-20 20:45:00,
2013-07-20 15:33:00,78.0,27.0,-100.00,West,264,13.0,24.0,15,0.00,,,0.00,1007.000000,,2013-07-20 21:33:00,
2013-07-20 15:44:00,78.0,27.0,-100.00,West,264,13.0,24.0,15,0.00,,,0.00,1007.000000,,2013-07-20 21:44:00,
2013-07-20 15:55:00,78.0,27.0,-100.00,West,264,13.0,24.0,15,0.00,,,0.00,1007.000000,,2013-07-20 21:55:00,
2013-07-20 16:25:00,77.0,24.0,-100.00,West,268,6.0,19.0,14,0.00,,,0.00,861.000000,,2013-07-20 22:25:00,
2013-07-20 16:33:00,77.0,24.0,-100.00,West,268,6.0,19.0,14,0.00,,,0.00,861.000000,,2013-07-20 22:33:00,
2013-07-20 16:47:00,77.0,24.0,-100.00,West,268,6.0,19.0,14,0.00,,,0.00,861.000000,,2013-07-20 22:47:00,
2013-07-20 16:54:00,77.0,24.0,-100.00,West,268,6.0,19.0,14,0.00,,,0.00,861.000000,,2013-07-20 22:54:00,
2013-07-20 17:27:00,77.0,26.0,-100.00,WSW,244,4.0,17.0,15,0.00,,,0.00,610.000000,,2013-07-20 23:27:00,
2013-07-20 17:36:00,77.0,26.0,-100.00,WSW,244,4.0,17.0,15,0.00,,,0.00,610.000000,,2013-07-20 23:36:00,
2013-07-20 17:54:00,77.0,26.0,-100.00,WSW,244,4.0,17.0,15,0.00,,,0.00,610.000000,,2013-07-20 23:54:00,
2013-07-20 18:43:00,72.0,26.0,-100.00,NW,314,5.0,19.0,18,0.00,,,0.00,439.000000,,2013-07-21 00:43:00,
2013-07-20 18:55:00,72.0,26.0,-100.00,NW,314,5.0,19.0,18,0.00,,,0.00,439.000000,,2013-07-21 00:55:00,
2013-07-20 19:26:00,75.0,30.0,-100.00,West,267,4.0,14.0,19,0.00,,,0.00,335.000000,,2013-07-21 01:26:00,
2013-07-20 19:36:00,75.0,30.0,-100.00,West,267,4.0,14.0,19,0.00,,,0.00,335.000000,,2013-07-21 01:36:00,
2013-07-20 19:45:00,-999.0,-99.9,-100.00,West,267,4.0,14.0,-999,-99.99,,,-99.99,335.000000,,2013-07-21 01:45:00,
2013-07-20 19:55:00,75.0,30.0,-100.00,West,267,4.0,14.0,19,0.00,,,0.00,335.000000,,2013-07-21 01:55:00,
2013-07-20 20:26:00,71.0,29.0,-100.00,NW,307,3.0,8.0,21,0.00,,,0.00,114.000000,,2013-07-21 02:26:00,
2013-07-20 20:36:00,71.0,29.0,-100.00,NW,307,3.0,8.0,21,0.00,,,0.00,114.000000,,2013-07-21 02:36:00,
2013-07-20 20:43:00,71.0,29.0,-100.00,NW,307,3.0,8.0,21,0.00,,,0.00,114.000000,,2013-07-21 02:43:00,
2013-07-20 20:54:00,71.0,29.0,-100.00,NW,307,3.0,8.0,21,0.00,,,0.00,114.000000,,2013-07-21 02:54:00,
2013-07-20 21:24:00,65.0,29.0,-100.00,East,86,2.0,5.0,26,0.00,,,0.00,15.000000,,2013-07-21 03:24:00,
2013-07-20 21:35:00,65.0,29.0,-100.00,East,86,2.0,5.0,26,0.00,,,0.00,15.000000,,2013-07-21 03:35:00,
2013-07-20 21:44:00,65.0,29.0,-100.00,East,86,2.0,5.0,26,0.00,,,0.00,15.000000,,2013-07-21 03:44:00,
2013-07-20 21:55:00,65.0,29.0,-100.00,East,86,2.0,5.0,26,0.00,,,0.00,15.000000,,2013-07-21 03:55:00,
2013-07-20 22:22:00,61.0,31.0,-100.00,East,95,4.0,6.0,32,0.00,,,0.00,0.000000,,2013-07-21 04:22:00,
2013-07-20 22:32:00,61.0,31.0,-100.00,East,95,4.0,6.0,32,0.00,,,0.00,0.000000,,2013-07-21 04:32:00,
2013-07-20 22:43:00,61.0,31.0,-100.00,East,95,4.0,6.0,32,0.00,,,0.00,0.000000,,2013-07-21 04:43:00,
2013-07-20 22:53:00,61.0,31.0,-100.00,East,95,4.0,6.0,32,0.00,,,0.00,0.000000,,2013-07-21 04:53:00,
2013-07-20 23:22:00,56.0,33.0,-100.00,ENE,76,6.0,10.0,41,0.00,,,0.00,0.000000,,2013-07-21 05:22:00,
2013-07-20 23:32:00,56.0,33.0,-100.00,ENE,76,6.0,10.0,41,0.00,,,0.00,0.000000,,2013-07-21 05:32:00,
2013-07-20 23:42:00,56.0,33.0,-100.00,ENE,76,6.0,10.0,41,0.00,,,0.00,0.000000,,2013-07-21 05:42:00,
2013-07-20 23:52:00,56.0,33.0,-100.00,ENE,76,6.0,10.0,41,0.00,,,0.00,0.000000,,2013-07-21 05:52:00,